STARLINK-31477, 59314

Orbit data source: Space-Track

STARLINK-31477, 59314 is a payload satellite owned by SpaceX/Seattle (US) in LEO that was launched on Sun, 24 Mar 2024 UTC via an FALCON 9 launch vehicle from the Air Force Eastern Test Range (AFETR). Payload-class satellites include a variety of spacecraft equipped with specific instruments for various scientific and technological missions. These include communications satellites like Starlink; space stations such as the ISS; scientific satellites like the Hubble; Earth observation satellites from companies like Planet Labs, Umbra, and HawkEye 360; GPS; miniature CubeSats for education and research; and military/defense satellites.

Loading next visibility...
Identifier
59314, 2024-056U
Orbit
LEO
Country
Flag of USUS
Related business
Manufacturer
SpaceX/Seattle
Mission
Operational Commercial Communications
Bus & Motor
STARLINK V2M, Unknown motor
Mass
730 kg wet, ~700 kg dry
Launch date (UTC)
2024-03-24 (2 years ago)
Launch vehicle
FALCON 9
Launch site
Air Force Eastern Test Range (AFETR)
Object type
Payload
Rocket body
Debris
Shape & HBR
Box + 2 Pan, 17.7 m
Radar Cross Section
33.884 m², Large (>1 m²)

Expand to show TLE details & history
Last TLE update: 3 days ago

TLE from 3 days ago
0 STARLINK-31477
1 59314U 24056U   26170.25120709 -.00000775  00000-0 -18665-4 0  9992
2 59314  43.0042   9.6343 0000803 270.3571  89.7188 15.27574573126778
Epoch: 2026-06-19T06:01Z
TLE epoch observation values (Epoch: 2026-06-19T06:01:44.292Z)
Latitude
-0.00007°
Longitude
11.71681°
Altitude
482.839 km
Speed
7.626 km/s
True Right ascension
00h 38m 32s
True Declination
0° 00' 00"
Sunlit
Object was in daylight at epoch
Visualization orbit readout
Latitude
Unknown
Longitude
Unknown
Altitude
Unknown
Speed
Unknown
Apparent Right ascension
Unknown
Apparent Declination
Unknown
Sunlit
N/A
Visualization observer readout
Local Sidereal Time
21:29:48
Azimuth
Unknown
Elevation
Unknown
Doppler factor
Unknown
Orbital elements
Apogee altitude
485.561 km
Perigee altitude
484.459 km
Semi-major axis
6,863.147 km
Eccentricity
0.00008
Inclination
43.0042°
RAAN
9.6343°
Arg. of periapsis
270.3571°
True anomaly
89.728°
Mean anomaly
89.7188°
Eccentric anomaly
89.7234°
Mean motion
3.81732 °/min
Orbital period
94.31 mins
BSTAR
-0.000018665
Loading maneuver chart data...
Computing Atmospheric mass density...
Loading historical data...
Loading historical data...
Loading historical data...
Loading historical data...
Loading historical data...
Loading historical data...
Loading historical data...

Documentation

Showing up to 5 results
|